Коротчаево

Россия / Ямало-Ненецкий автономный округ     65°55′36″N   78°11′01″E
темп.,
°C
ветер,
м/с
пор.,
м/с
влажн.,
%
обл.,
%
осадки,
мм/ч
давл.,
гПа
погр.,
м
25 февраля, чт
чт2523:00−34юв22982 0.0 102919
02:00−35юв22990 0.0 102919
05:00−36вюв12990 0.0 102819
08:00−36в129841 0.0 102719
11:00−32св229340 0.0 1025163
14:00−30св239176 0.0 1024268
17:00−34ссв229772 0.0 102419
20:00−36св22970 0.0 102319
26 февраля, пт
пт2623:00−35св129836 0.0 102319
02:00−35с129992 0.0 102319
05:00−37ссв1210079 0.0 102319
08:00−37с1110047 0.0 102219
11:00−32юз119344 0.0 1023110
14:00−30зюз229267 0.0 1023168
17:00−31ююз229679 0.0 102329
20:00−29ююз2398100 0.1 102373
27 февраля, сб
сб2723:00−27ююз3598100 0.2 1023138
02:00−26ююз3498100 0.1 102297
05:00−25ююз2399100 0.3 102254
08:00−24ююз2299100 0.2 102148
11:00−21зюз2395100 0.4 1021249
14:00−20з2294100 0.2 1022294
17:00−21юз1299100 0.4 102220
20:00−25вюв3498100 0.1 102373
28 февраля, вс
вс2823:00−29вюв349992 0.1 102331
02:00−30вюв349988 0.0 102439
05:00−31вюв349988 0.1 102436
08:00−32вюв349882 0.0 102443
11:00−27вюв359544 0.0 1025191
14:00−26вюв35940 0.0 1025233
17:00−30вюв34970 0.0 102528
20:00−32вюв349817 0.0 102633
1 марта, пн
пн123:00−32юв349938 0.0 102531
02:00−32юв349974 0.0 102627
05:00−33юв349884 0.0 102640
08:00−33юв449854 0.0 102664
11:00−29юв359568 0.0 1026216
14:00−27юв3494100 0.0 1026237
17:00−29юв3495100 0.0 102598
20:00−30ююв469498 0.0 1025153